Regional Weather Roundup
Issued by NWS

Home | Current Version | Previous Version | Text Only | Print | Product List | Glossary Off
Versions: 1 2 3 4 5 6 7 8 9 10 11 12 13 14 15 16 17 18 19 20 21 22 23 24 25 26 27 28 29 30 31 32 33 34 35 36 37 38 39 40 41 42 43 44 45 46 47 48 49 50

000
ASUS43 KBIS 201902
RWRND

NORTH DAKOTA REGIONAL WEATHER ROUNDUP
NATIONAL WEATHER SERVICE BISMARCK ND
200 PM CDT FRI OCT 20 2017

NOTE: "FAIR" INDICATES FEW OR NO CLOUDS BELOW 12,000 FEET WITH NO
SIGNIFICANT WEATHER AND/OR OBSTRUCTIONS TO VISIBILITY.


NDZ001>003-009>011-017-202000-
NORTHWEST NORTH DAKOTA

CITY           SKY/WX    TMP DP  RH WIND       PRES   REMARKS
WILLISTON      SUNNY     69  37  30 VRB6      29.26F
MINOT          MOSUNNY   70  37  29 S12       29.28F
MINOT AFB      CLOUDY    70  36  28 S14       29.26F
$$

NDZ018>021-031>035-040>046-202000-
SOUTHWEST NORTH DAKOTA

CITY           SKY/WX    TMP DP  RH WIND       PRES   REMARKS
BISMARCK       SUNNY     75  48  38 SE15G22   29.35F
DICKINSON      SUNNY     77  32  19 S9        29.29F
GARRISON         N/A     72  37  28 S14       29.30F
HETTINGER ARPT SUNNY     79  32  18 S13       29.34F
$$

NDZ004>008-012>016-024-026-027-054-202000-
NORTHEAST NORTH DAKOTA

CITY           SKY/WX    TMP DP  RH WIND       PRES   REMARKS
GRAND FORKS    MOSUNNY   76  52  43 S24G35    29.43F
GRND FRKS AFB  SUNNY     74  51  42 S23G30    29.43F
DEVILS LAKE    MOSUNNY   70  50  49 S21       29.36F
$$

NDZ022-023-025-028>030-036>039-047>053-202000-
SOUTHEAST NORTH DAKOTA

CITY           SKY/WX    TMP DP  RH WIND       PRES   REMARKS
FARGO          SUNNY     75  52  44 S24G39    29.48F
JAMESTOWN      MOSUNNY   71  50  47 S21G36    29.42F
$$





USA.gov is the U.S. government's official web portal to all federal, state and local government web resources and services.